QFA55 PAJN-PANC

Flight info

Callsign QFA55
Flight time 1h 22m
Altitude 34000
Route ASORT3 ASORT J541 YAK J501 JOH WITTI5
Aircraft B738/M-SDE2E3FGHIRWXY/LB1

Departure

Time 2026-05-09 08:52
Airport Juneau International Airport (PAJN)

Arrival

Time 2026-05-09 10:15
Airport Ted Stevens Anchorage International Airport (PANC)
Time Latitude Longitude Altitude Speed Heading
2026-05-09 08:40 58.35878 -134.58473 30 ft 0 kts 103°
2026-05-09 08:45 58.35878 -134.58474 30 ft 1 kts 102°
2026-05-09 08:45 58.35882 -134.58518 30 ft 3 kts 99°
2026-05-09 08:46 58.35885 -134.58562 30 ft 3 kts 83°
2026-05-09 08:46 58.35875 -134.58598 30 ft 3 kts 33°
2026-05-09 08:46 58.35853 -134.58608 30 ft 3 kts
2026-05-09 08:46 58.35828 -134.58609 30 ft 3 kts
2026-05-09 08:47 58.35817 -134.58621 30 ft 3 kts 103°
2026-05-09 08:47 58.35819 -134.58637 30 ft 0 kts 109°
2026-05-09 08:49 58.35818 -134.58631 30 ft 2 kts 113°
2026-05-09 08:49 58.35794 -134.58595 30 ft 7 kts 167°
2026-05-09 08:49 58.35757 -134.58671 30 ft 13 kts 281°
2026-05-09 08:50 58.35787 -134.58868 30 ft 18 kts 287°
2026-05-09 08:50 58.35823 -134.59136 30 ft 23 kts 283°
2026-05-09 08:50 58.35864 -134.59437 30 ft 24 kts 285°
2026-05-09 08:50 58.35878 -134.59657 30 ft 15 kts 241°
2026-05-09 08:51 58.35804 -134.59704 30 ft 9 kts 142°
2026-05-09 08:51 58.35751 -134.59419 30 ft 45 kts 105°
2026-05-09 08:51 58.35616 -134.58472 30 ft 101 kts 104°
2026-05-09 08:51 58.35390 -134.56863 34 ft 148 kts 105°
2026-05-09 08:52 58.35196 -134.54887 527 ft 149 kts 91°
2026-05-09 08:52 58.35265 -134.52959 1205 ft 149 kts 87°
2026-05-09 08:52 58.35085 -134.50993 1590 ft 159 kts 124°
2026-05-09 08:52 58.34243 -134.49540 2024 ft 171 kts 153°
2026-05-09 08:53 58.33135 -134.48550 2496 ft 182 kts 149°
2026-05-09 08:53 58.32057 -134.47134 2969 ft 195 kts 142°
2026-05-09 08:53 58.30821 -134.45867 3515 ft 205 kts 163°
2026-05-09 08:53 58.29396 -134.46024 4049 ft 216 kts 207°
2026-05-09 08:54 58.28415 -134.48209 4528 ft 232 kts 252°
2026-05-09 08:54 58.28514 -134.51403 4697 ft 265 kts 292°
2026-05-09 08:54 58.29699 -134.54368 4709 ft 297 kts 317°
2026-05-09 08:54 58.31149 -134.57028 5906 ft 280 kts 314°
2026-05-09 08:55 58.32544 -134.59698 6529 ft 295 kts 313°
2026-05-09 08:55 58.33560 -134.63000 7243 ft 291 kts 282°
2026-05-09 08:55 58.33833 -134.66783 8013 ft 288 kts 270°
2026-05-09 08:55 58.33936 -134.70606 8749 ft 290 kts 267°
2026-05-09 08:56 58.33988 -134.74459 9478 ft 292 kts 266°
2026-05-09 08:56 58.34051 -134.78337 10201 ft 297 kts 267°
2026-05-09 08:56 58.34140 -134.82376 10486 ft 314 kts 268°
2026-05-09 08:56 58.34251 -134.86641 10786 ft 331 kts 268°
2026-05-09 08:57 58.34371 -134.91114 11146 ft 344 kts 268°
2026-05-09 08:57 58.34490 -134.95710 11793 ft 349 kts 268°
2026-05-09 08:57 58.34604 -135.00339 12530 ft 352 kts 268°
2026-05-09 08:57 58.34712 -135.05010 13231 ft 355 kts 268°
2026-05-09 08:58 58.34818 -135.09728 13921 ft 359 kts 268°
2026-05-09 08:58 58.34925 -135.14494 14593 ft 363 kts 268°
2026-05-09 08:58 58.35032 -135.19316 15281 ft 366 kts 268°
2026-05-09 08:58 58.35140 -135.24193 15961 ft 370 kts 268°
2026-05-09 08:59 58.35247 -135.29111 16625 ft 374 kts 268°
2026-05-09 08:59 58.35342 -135.33617 17221 ft 378 kts 268°
2026-05-09 08:59 58.35446 -135.38639 17859 ft 382 kts 268°
2026-05-09 08:59 58.35550 -135.43721 18492 ft 386 kts 268°
2026-05-09 09:00 58.35653 -135.48841 19100 ft 389 kts 268°
2026-05-09 09:00 58.35755 -135.54023 19691 ft 393 kts 268°
2026-05-09 09:00 58.35855 -135.59262 20267 ft 397 kts 268°
2026-05-09 09:00 58.35954 -135.64612 20831 ft 401 kts 268°
2026-05-09 09:01 58.36050 -135.69946 21371 ft 405 kts 268°
2026-05-09 09:01 58.36154 -135.75331 21901 ft 409 kts 270°
2026-05-09 09:01 58.36604 -135.80712 22497 ft 415 kts 281°
2026-05-09 09:01 58.37600 -135.85926 22989 ft 424 kts 293°
2026-05-09 09:02 58.39076 -135.90832 23408 ft 431 kts 298°
2026-05-09 09:02 58.40655 -135.95727 23848 ft 435 kts 299°
2026-05-09 09:02 58.42270 -136.00643 24282 ft 439 kts 299°
2026-05-09 09:02 58.43896 -136.05608 24701 ft 443 kts 299°
2026-05-09 09:03 58.45518 -136.10632 25120 ft 446 kts 298°
2026-05-09 09:03 58.47135 -136.15704 25528 ft 449 kts 298°
2026-05-09 09:03 58.48763 -136.20822 25924 ft 452 kts 298°
2026-05-09 09:03 58.50400 -136.25959 26305 ft 454 kts 298°
2026-05-09 09:04 58.52053 -136.31129 26675 ft 457 kts 298°
2026-05-09 09:04 58.53715 -136.36327 27016 ft 460 kts 298°
2026-05-09 09:04 58.55384 -136.41572 27357 ft 462 kts 298°
2026-05-09 09:04 58.57055 -136.46852 27680 ft 464 kts 298°
2026-05-09 09:05 58.58728 -136.52154 27999 ft 467 kts 298°
2026-05-09 09:05 58.60410 -136.57494 28311 ft 469 kts 298°
2026-05-09 09:05 58.62106 -136.62887 28367 ft 476 kts 298°
2026-05-09 09:05 58.63829 -136.68374 28485 ft 481 kts 298°
2026-05-09 09:06 58.65560 -136.73897 28705 ft 483 kts 298°
2026-05-09 09:06 58.67292 -136.79433 28963 ft 484 kts 298°
2026-05-09 09:06 58.69024 -136.84989 29239 ft 484 kts 297°
2026-05-09 09:06 58.70754 -136.90551 29516 ft 484 kts 297°
2026-05-09 09:07 58.72479 -136.96115 29804 ft 484 kts 297°
2026-05-09 09:07 58.74200 -137.01677 30075 ft 484 kts 297°
2026-05-09 09:07 58.75918 -137.07242 30344 ft 483 kts 297°
2026-05-09 09:07 58.77634 -137.12812 30608 ft 483 kts 297°
2026-05-09 09:08 58.79366 -137.18449 30876 ft 482 kts 297°
2026-05-09 09:08 58.81070 -137.24009 31138 ft 481 kts 297°
2026-05-09 09:08 58.82771 -137.29571 31370 ft 481 kts 297°
2026-05-09 09:08 58.84468 -137.35136 31607 ft 481 kts 297°
2026-05-09 09:09 58.86163 -137.40706 31828 ft 480 kts 297°
2026-05-09 09:09 58.87853 -137.46269 32061 ft 480 kts 297°
2026-05-09 09:09 58.89540 -137.51839 32277 ft 480 kts 297°
2026-05-09 09:09 58.91221 -137.57403 32514 ft 479 kts 297°
2026-05-09 09:10 58.92898 -137.62965 32726 ft 478 kts 297°
2026-05-09 09:10 58.94569 -137.68523 32941 ft 477 kts 297°
2026-05-09 09:10 58.96233 -137.74078 33134 ft 477 kts 296°
2026-05-09 09:10 58.97899 -137.79650 33327 ft 477 kts 296°
2026-05-09 09:11 58.99559 -137.85204 33522 ft 476 kts 296°
2026-05-09 09:11 59.01219 -137.90770 33695 ft 476 kts 296°
2026-05-09 09:11 59.02877 -137.96346 33713 ft 478 kts 296°
2026-05-09 09:12 59.06196 -138.07561 33717 ft 479 kts 296°
2026-05-09 09:12 59.09500 -138.18773 33714 ft 477 kts 296°
2026-05-09 09:13 59.12780 -138.29958 33705 ft 474 kts 296°
2026-05-09 09:13 59.16030 -138.41099 33698 ft 472 kts 296°
2026-05-09 09:14 59.19265 -138.52239 33692 ft 472 kts 296°
2026-05-09 09:14 59.22490 -138.63401 33687 ft 472 kts 296°
2026-05-09 09:15 59.25710 -138.74594 33681 ft 472 kts 296°
2026-05-09 09:15 59.28399 -138.83991 33675 ft 474 kts 296°
2026-05-09 09:16 59.31620 -138.95293 33672 ft 477 kts 296°
2026-05-09 09:16 59.36475 -139.12431 33662 ft 481 kts 296°
2026-05-09 09:17 59.39718 -139.23951 33658 ft 483 kts 296°
2026-05-09 09:17 59.42955 -139.35510 33657 ft 483 kts 296°
2026-05-09 09:18 59.46184 -139.47101 33658 ft 483 kts 296°
2026-05-09 09:18 59.49398 -139.58706 33657 ft 483 kts 296°
2026-05-09 09:19 59.52092 -139.70749 33664 ft 480 kts 286°
2026-05-09 09:19 59.54232 -139.83229 33662 ft 481 kts 285°
2026-05-09 09:20 59.56330 -139.95845 33659 ft 481 kts 285°
2026-05-09 09:20 59.58427 -140.08363 33657 ft 481 kts 285°
2026-05-09 09:21 59.60515 -140.20899 33657 ft 480 kts 285°
2026-05-09 09:21 59.62576 -140.33438 33652 ft 480 kts 285°
2026-05-09 09:22 59.64634 -140.46004 33649 ft 480 kts 285°
2026-05-09 09:22 59.66676 -140.58559 33647 ft 480 kts 285°
2026-05-09 09:23 59.68703 -140.71129 33643 ft 479 kts 285°
2026-05-09 09:23 59.70716 -140.83695 33639 ft 479 kts 285°
2026-05-09 09:24 59.72716 -140.96264 33636 ft 478 kts 285°
2026-05-09 09:24 59.74699 -141.08823 33632 ft 477 kts 285°
2026-05-09 09:25 59.76670 -141.21392 33628 ft 477 kts 285°
2026-05-09 09:25 59.78625 -141.33955 33623 ft 476 kts 285°
2026-05-09 09:26 59.80566 -141.46515 33619 ft 476 kts 285°
2026-05-09 09:26 59.82494 -141.59089 33615 ft 476 kts 285°
2026-05-09 09:27 59.84412 -141.71684 33610 ft 476 kts 285°
2026-05-09 09:27 59.86327 -141.84355 33606 ft 475 kts 285°
2026-05-09 09:28 59.88216 -141.96953 33606 ft 475 kts 285°
2026-05-09 09:28 59.90093 -142.09562 33603 ft 475 kts 285°
2026-05-09 09:29 59.91959 -142.22186 33599 ft 475 kts 284°
2026-05-09 09:29 59.93811 -142.34821 33594 ft 475 kts 284°
2026-05-09 09:30 59.95653 -142.47480 33590 ft 475 kts 284°
2026-05-09 09:30 59.97481 -142.60138 33587 ft 475 kts 284°
2026-05-09 09:31 59.99297 -142.72820 33583 ft 475 kts 284°
2026-05-09 09:32 60.01992 -142.91810 33579 ft 472 kts 284°
2026-05-09 09:32 60.03764 -143.04424 33575 ft 470 kts 284°
2026-05-09 09:33 60.05519 -143.17017 33573 ft 470 kts 284°
2026-05-09 09:33 60.07264 -143.29635 33571 ft 470 kts 284°
2026-05-09 09:34 60.08997 -143.42265 33569 ft 471 kts 284°
2026-05-09 09:34 60.10720 -143.54925 33567 ft 471 kts 284°
2026-05-09 09:36 60.17496 -144.05736 33565 ft 471 kts 283°
2026-05-09 09:37 60.19156 -144.18447 33565 ft 470 kts 283°
2026-05-09 09:37 60.20804 -144.31169 33565 ft 470 kts 283°
2026-05-09 09:38 60.22438 -144.43887 33567 ft 470 kts 283°
2026-05-09 09:38 60.24059 -144.56621 33568 ft 469 kts 283°
2026-05-09 09:39 60.25661 -144.69332 33569 ft 468 kts 283°
2026-05-09 09:39 60.27255 -144.82029 33571 ft 467 kts 282°
2026-05-09 09:40 60.28829 -144.94711 33573 ft 466 kts 282°
2026-05-09 09:40 60.30389 -145.07404 33576 ft 466 kts 282°
2026-05-09 09:41 60.31945 -145.20174 33577 ft 465 kts 282°
2026-05-09 09:41 60.33478 -145.32859 33580 ft 465 kts 282°
2026-05-09 09:42 60.35001 -145.45536 33581 ft 465 kts 282°
2026-05-09 09:42 60.36506 -145.58222 33583 ft 464 kts 282°
2026-05-09 09:43 60.37999 -145.70913 33585 ft 464 kts 282°
2026-05-09 09:43 60.39482 -145.83628 33586 ft 465 kts 282°
2026-05-09 09:44 60.40953 -145.96357 33587 ft 465 kts 282°
2026-05-09 09:44 60.42411 -146.09088 33590 ft 464 kts 281°
2026-05-09 09:45 60.43853 -146.21799 33593 ft 463 kts 281°
2026-05-09 09:45 60.45281 -146.34504 33607 ft 462 kts 281°
2026-05-09 09:46 60.46695 -146.47212 33610 ft 462 kts 281°
2026-05-09 09:46 60.48127 -146.59892 33609 ft 462 kts 285°
2026-05-09 09:47 60.50137 -146.72256 33614 ft 462 kts 287°
2026-05-09 09:47 60.52179 -146.84609 33614 ft 461 kts 287°
2026-05-09 09:47 60.53198 -146.90789 33231 ft 461 kts 286°
2026-05-09 09:48 60.54204 -146.96942 32655 ft 456 kts 286°
2026-05-09 09:48 60.55192 -147.03020 32113 ft 451 kts 286°
2026-05-09 09:48 60.56181 -147.09126 31575 ft 446 kts 286°
2026-05-09 09:48 60.56820 -147.13077 31229 ft 443 kts 285°
2026-05-09 09:49 60.58096 -147.20980 30541 ft 437 kts 285°
2026-05-09 09:49 60.58721 -147.24863 30202 ft 434 kts 285°
2026-05-09 09:49 60.59660 -147.30724 29695 ft 442 kts 285°
2026-05-09 09:49 60.60608 -147.36675 29171 ft 439 kts 285°
2026-05-09 09:50 60.61545 -147.42547 28657 ft 434 kts 285°
2026-05-09 09:50 60.62470 -147.48364 28149 ft 430 kts 285°
2026-05-09 09:50 60.63384 -147.54131 27635 ft 426 kts 285°
2026-05-09 09:50 60.64285 -147.59854 27114 ft 422 kts 285°
2026-05-09 09:51 60.65177 -147.65533 26616 ft 419 kts 284°
2026-05-09 09:51 60.66058 -147.71160 26126 ft 415 kts 284°
2026-05-09 09:51 60.66931 -147.76748 25641 ft 412 kts 284°
2026-05-09 09:51 60.67795 -147.82292 25161 ft 408 kts 284°
2026-05-09 09:52 60.68648 -147.87792 24685 ft 405 kts 284°
2026-05-09 09:52 60.69493 -147.93252 24213 ft 402 kts 284°
2026-05-09 09:52 60.70328 -147.98671 23745 ft 399 kts 284°
2026-05-09 09:52 60.71164 -148.04116 23276 ft 403 kts 283°
2026-05-09 09:53 60.72010 -148.09649 22800 ft 405 kts 283°
2026-05-09 09:53 60.72845 -148.15131 22325 ft 403 kts 283°
2026-05-09 09:53 60.73675 -148.20572 21854 ft 399 kts 283°
2026-05-09 09:53 60.74494 -148.25953 21390 ft 395 kts 283°
2026-05-09 09:54 60.75300 -148.31297 20930 ft 391 kts 283°
2026-05-09 09:54 60.76088 -148.36585 20475 ft 387 kts 283°
2026-05-09 09:54 60.76866 -148.41829 20024 ft 383 kts 283°
2026-05-09 09:54 60.77636 -148.47023 19577 ft 379 kts 283°
2026-05-09 09:55 60.78396 -148.52152 19136 ft 375 kts 283°
2026-05-09 09:55 60.79148 -148.57237 18699 ft 371 kts 282°
2026-05-09 09:55 60.79889 -148.62263 18267 ft 367 kts 282°
2026-05-09 09:55 60.80621 -148.67264 17840 ft 369 kts 282°
2026-05-09 09:56 60.81357 -148.72310 17601 ft 372 kts 283°
2026-05-09 09:56 60.82107 -148.77476 17308 ft 378 kts 283°
2026-05-09 09:56 60.82856 -148.82607 16911 ft 372 kts 283°
2026-05-09 09:56 60.83591 -148.87648 16491 ft 367 kts 283°
2026-05-09 09:57 60.84313 -148.92624 16068 ft 361 kts 283°
2026-05-09 09:57 60.85017 -148.97519 15650 ft 355 kts 283°
2026-05-09 09:57 60.85710 -149.02349 15237 ft 352 kts 283°
2026-05-09 09:57 60.86403 -149.07220 14821 ft 359 kts 283°
2026-05-09 09:58 60.87100 -149.12127 14400 ft 358 kts 283°
2026-05-09 09:58 60.87798 -149.17019 13981 ft 355 kts 283°
2026-05-09 09:58 60.88519 -149.21807 13571 ft 349 kts 289°
2026-05-09 09:58 60.89506 -149.26321 13158 ft 344 kts 292°
2026-05-09 09:59 60.90511 -149.30753 12756 ft 342 kts 293°
2026-05-09 09:59 60.91527 -149.35212 12353 ft 347 kts 293°
2026-05-09 09:59 60.92551 -149.39698 11946 ft 347 kts 294°
2026-05-09 09:59 60.93574 -149.44182 11537 ft 343 kts 294°
2026-05-09 10:00 60.94586 -149.48640 11133 ft 336 kts 294°
2026-05-09 10:00 60.95559 -149.52942 10743 ft 328 kts 294°
2026-05-09 10:00 60.96513 -149.57177 10454 ft 324 kts 294°
2026-05-09 10:00 60.97443 -149.61315 10329 ft 310 kts 294°
2026-05-09 10:01 60.98326 -149.65245 10202 ft 295 kts 294°
2026-05-09 10:01 60.99173 -149.69015 10075 ft 287 kts 294°
2026-05-09 10:01 61.00039 -149.72677 9893 ft 284 kts 301°
2026-05-09 10:01 61.01275 -149.75844 9594 ft 284 kts 317°
2026-05-09 10:02 61.02699 -149.78616 9251 ft 279 kts 317°
2026-05-09 10:02 61.04107 -149.81312 8923 ft 274 kts 318°
2026-05-09 10:02 61.05496 -149.83960 8609 ft 271 kts 318°
2026-05-09 10:02 61.06873 -149.86594 8301 ft 269 kts 318°
2026-05-09 10:03 61.08239 -149.89217 8000 ft 267 kts 318°
2026-05-09 10:03 61.09501 -149.91992 7711 ft 265 kts 305°
2026-05-09 10:03 61.10293 -149.95424 7433 ft 266 kts 285°
2026-05-09 10:03 61.10487 -149.99210 7143 ft 266 kts 270°
2026-05-09 10:04 61.10463 -150.03019 6804 ft 263 kts 269°
2026-05-09 10:04 61.10409 -150.06780 6490 ft 261 kts 269°
2026-05-09 10:04 61.10351 -150.10509 6191 ft 259 kts 269°
2026-05-09 10:04 61.10301 -150.14228 5895 ft 258 kts 269°
2026-05-09 10:05 61.10254 -150.17925 5602 ft 257 kts 269°
2026-05-09 10:05 61.10208 -150.21595 5307 ft 255 kts 269°
2026-05-09 10:05 61.10161 -150.25214 5141 ft 245 kts 269°
2026-05-09 10:05 61.10116 -150.28635 5043 ft 231 kts 269°
2026-05-09 10:06 61.10067 -150.31906 5010 ft 226 kts 269°
2026-05-09 10:06 61.09990 -150.35196 4897 ft 227 kts 268°
2026-05-09 10:06 61.09902 -150.38446 4667 ft 230 kts 268°
2026-05-09 10:06 61.09811 -150.41699 4411 ft 224 kts 268°
2026-05-09 10:07 61.09724 -150.44921 4151 ft 221 kts 268°
2026-05-09 10:07 61.09642 -150.48080 3899 ft 219 kts 268°
2026-05-09 10:07 61.09560 -150.51216 3651 ft 218 kts 268°
2026-05-09 10:07 61.09478 -150.54297 3466 ft 213 kts 268°
2026-05-09 10:08 61.09515 -150.57372 3210 ft 217 kts 289°
2026-05-09 10:08 61.10416 -150.59773 2816 ft 212 kts 336°
2026-05-09 10:08 61.11776 -150.60018 2904 ft 195 kts 22°
2026-05-09 10:08 61.12959 -150.58433 3001 ft 213 kts 37°
2026-05-09 10:09 61.14076 -150.56521 2970 ft 201 kts 39°
2026-05-09 10:09 61.15136 -150.54669 3016 ft 197 kts 39°
2026-05-09 10:09 61.16077 -150.52548 3061 ft 200 kts 56°
2026-05-09 10:09 61.16587 -150.49815 3022 ft 206 kts 78°
2026-05-09 10:10 61.16649 -150.46876 3064 ft 209 kts 88°
2026-05-09 10:10 61.16665 -150.43838 3014 ft 209 kts 88°
2026-05-09 10:10 61.16677 -150.40891 3042 ft 200 kts 88°
2026-05-09 10:10 61.16686 -150.38128 3012 ft 182 kts 88°
2026-05-09 10:11 61.16695 -150.35553 2976 ft 182 kts 88°
2026-05-09 10:11 61.16705 -150.32958 2856 ft 183 kts 88°
2026-05-09 10:11 61.16714 -150.30359 2614 ft 177 kts 89°
2026-05-09 10:11 61.16722 -150.27838 2376 ft 173 kts 88°
2026-05-09 10:12 61.16730 -150.25359 2153 ft 172 kts 88°
2026-05-09 10:12 61.16737 -150.22887 1922 ft 172 kts 89°
2026-05-09 10:12 61.16744 -150.20431 1700 ft 168 kts 89°
2026-05-09 10:12 61.16750 -150.18080 1478 ft 159 kts 90°
2026-05-09 10:13 61.16756 -150.15819 1272 ft 155 kts 90°
2026-05-09 10:13 61.16761 -150.13588 1063 ft 155 kts 90°
2026-05-09 10:13 61.16766 -150.11341 860 ft 153 kts 90°
2026-05-09 10:13 61.16772 -150.09159 667 ft 153 kts 90°
2026-05-09 10:14 61.16773 -150.06935 445 ft 155 kts 90°
2026-05-09 10:14 61.16779 -150.04664 235 ft 155 kts 89°
2026-05-09 10:14 61.16781 -150.02578 162 ft 120 kts 90°
2026-05-09 10:14 61.16782 -150.01332 161 ft 56 kts 90°
2026-05-09 10:15 61.16782 -150.00572 161 ft 48 kts 91°
2026-05-09 10:15 61.16786 -149.99957 161 ft 37 kts 82°
2026-05-09 10:15 61.16858 -149.99529 161 ft 25 kts 52°
2026-05-09 10:15 61.16974 -149.99314 161 ft 20 kts 38°
2026-05-09 10:16 61.17069 -149.99161 161 ft 15 kts 37°
2026-05-09 10:16 61.17141 -149.99027 161 ft 13 kts 46°
2026-05-09 10:16 61.17178 -149.98939 161 ft 11 kts 50°
2026-05-09 10:16 61.17211 -149.98858 161 ft 9 kts 47°
2026-05-09 10:17 61.17286 -149.98815 161 ft 17 kts 343°
2026-05-09 10:17 61.17427 -149.98922 161 ft 25 kts 340°
2026-05-09 10:17 61.17571 -149.99028 161 ft 17 kts 340°
2026-05-09 10:17 61.17666 -149.98968 161 ft 15 kts 63°
2026-05-09 10:18 61.17678 -149.98795 161 ft 10 kts 110°
2026-05-09 10:18 61.17637 -149.98719 161 ft 6 kts 155°
2026-05-09 10:18 61.17607 -149.98684 161 ft 5 kts 139°
2026-05-09 10:18 61.17586 -149.98585 161 ft 9 kts 105°
2026-05-09 10:19 61.17575 -149.98494 161 ft 1 kts 104°
2026-05-09 10:19 61.17575 -149.98493 161 ft 0 kts 104°